This is the latest recevied weather packets stored in our database for station/object KF6FPU-15. If no packets are shown the sender has not sent any weather packets the latest 10 day(s).
| Time | Temp. | Humidity | Pressure | Rain* | Wind** | Luminosity | Snow |
|---|---|---|---|---|---|---|---|
| 1787956383 | 41.67° C | 17% | 1014.3 hPa | - | - | - | - |
| 1787955783 | 41.67° C | 17% | 1014.3 hPa | - | - | - | - |
| 1787954583 | 41.67° C | 17% | 1014.4 hPa | - | - | - | - |
| 1787953983 | 41.67° C | 17% | 1014.5 hPa | - | - | - | - |
| 1787953383 | 41.67° C | 17% | 1014.3 hPa | - | - | - | - |
| 1787952783 | 41.67° C | 17% | 1014.4 hPa | - | - | - | - |
| 1787952183 | 41.67° C | 17% | 1014.6 hPa | - | - | - | - |
| 1787951583 | 41.67° C | 17% | 1014.8 hPa | - | - | - | - |
| 1787950983 | 41.67° C | 17% | 1014.8 hPa | - | - | - | - |
| 1787950383 | 41.67° C | 17% | 1014.9 hPa | - | - | - | - |
| 1787949783 | 41.11° C | 17% | 1014.9 hPa | - | - | - | - |
| 1787949183 | 41.11° C | 17% | 1015 hPa | - | - | - | - |
| 1787947983 | 40.56° C | 17% | 1015 hPa | - | - | - | - |
| 1787947383 | 40° C | 18% | 1015 hPa | - | - | - | - |
| 1787946783 | 39.44° C | 18% | 1014.9 hPa | - | - | - | - |
| 1787946183 | 38.89° C | 18% | 1014.9 hPa | - | - | - | - |
| 1787945583 | 37.78° C | 18% | 1014.9 hPa | - | - | - | - |
| 1787944988 | 36.67° C | 18% | 1015.1 hPa | - | - | - | - |
| 1787944383 | 34.44° C | 19% | 1015 hPa | - | - | - | - |
| 1787943783 | 32.78° C | 19% | 1015 hPa | - | - | - | - |
| 1787943183 | 32.78° C | 19% | 1015.1 hPa | - | - | - | - |
| 1787942583 | 32.78° C | 19% | 1015.2 hPa | - | - | - | - |
| 1787941383 | 32.22° C | 19% | 1015.2 hPa | - | - | - | - |
| 1787940783 | 32.22° C | 19% | 1015.2 hPa | - | - | - | - |
| 1787940183 | 32.22° C | 19% | 1015.2 hPa | - | - | - | - |
* Rain since midnight (hover to see other rain measurements)
** Current wind speed in m/s (hover to see current wind gust speed)